Retour au catalogue

DELTA 2 R/B(1)

ActifLEO
NORAD 21891·ROCKET BODY·🇺🇸 United States

Lancé Feb 23, 1992 depuis Cape Canaveral Space Force Station

Loading…

Prochains Passages (prochaines 24 heures)

TLE

FraisSource: Space-Track

Époque: Sep 14, 2026, 07:42 UTC

1 21891U 92009B   26257.32096438  .00001953  00000-0  13576-3 0  9991
2 21891  19.9946 251.8021 0037688 181.0097 179.0250 14.94117356848137

Suivez DELTA 2 R/B(1) en temps réel avec AllMySat

Download on the App Store